WELCOME TO AIR WEST FLIGHT SUPPORT

Slider

THE RIGHT CHOICE FOR THE BEST SERVICE

OUR GOAL IS TO BE THE MOST ACCOMMODATING FBO IN LETHBRIDGE, AB. WITH EFFICIENT AND PROFFESSIONAL SERVICE

 WE HAVE GOT IT ALL!

  • Great Attitude
  • The Right Equipment
  • Large Facilities
  • Competitive Fuel Prices
  • In-House Aircraft Maintenance
  • In-House Flight Training, Aircraft Rentals
  • Aircraft Sales And Much  More!

Facebook By Weblizar Powered By Weblizar

 


We are located at the Lethbridge County Airport (CYQL) on Ramp 2 at the east end of Taxiway C.   Lethbridge is a key point of entry where you can clear customs using
CANPASS.  The Airport is approximately 5 km south of the City of Lethbridge, which offers convenient access to nearby towns such as Cardston, Crowsnest Pass, Coaldale, Fort MacLeod, Milk River, Pincher Creek and Taber.  Lethbridge and its surrounding area is a great tourist destination

 


Click on image to enlarge

Available data for CYQL from the past 2 hours
LETHBRIDGE VOR, AB
Metar
CYQL 141600Z 18005KT 60SM SCT180 BKN270 01/M09 A2978 RMK AC3CI4 SLP115

16:00 UTC

Wind: 180° 5kt

Visibility: 60 SM

Sky: SCT 18000 ft

Temp: 1 deg C / 33.8 deg F

Dewpoint: -9 deg C / 15.8 deg F

Pressure: 29.78 inHg

TAF
TAF AMD CYQL 141404Z 1414/1424 22010G20KT P6SM SCT270 RMK FCST BASED ON AUTO OBS. NXT FCST BY 141800Z